Terminal Aerodrome Forecast
Issued by NWS Grand Rapids, MI

Home | Current Version | Previous Version | Text Only | Print | Product List | Glossary On
Versions: 1 2 3 4 5 6 7 8 9 10 11 12 13 14 15 16 17 18 19 20 21 22 23
000
FTUS43 KGRR 182000 AAA
TAFGRR
TAF AMD
KGRR 182014Z 1820/1918 30006KT P6SM OVC025
      TEMPO 1820/1822 4SM -FZDZ BR OVC015
     FM190500 34004KT P6SM BKN040
     FM191200 VRB03KT P6SM SCT040=

USA.gov is the U.S. government's official web portal to all federal, state and local government web resources and services.